Location: Unspecified
(29.9680°N, 0.0000°E)
Time: 21:49:29
(UTC+00:00)

A-11 Canister half - Pass Details

Date: 20 June 2019
Orbit: 1526 x 1683 km, 47.3° (Epoch: 19 July)

Event Time Altitude Azimuth Distance (km) Brightness Sun altitude
Rises 07:36:11 0° 290° (WNW) 4,701 11.1 31.2°
Reaches altitude 10° 07:39:59 10° 302° (WNW) 3,705 10.7 32.0°
Maximum altitude 07:47:30 26° 357° (N) 2,630 10.6 33.6°
Drops below altitude 10° 07:55:01 10° 51° (NE) 3,700 12.0 35.2°
Sets 07:58:49 0° 64° (ENE) 4,695 12.5 36.0°
